Youngstown, OH

4:10 PM EST on December 09, 2019 (GMT -0500)
Youngstown-Warren Regional

Weather History for KYNG - September, 2019

Change the Weather History Date:

Monday, September 9, 2019

  Actual Average Record
Temperature  
Mean Temperature 64 °F 64 °F  
Max Temperature 73 °F 75 °F 92 °F (1959)
Min Temperature 54 °F 54 °F 37 °F (1979)
Degree Days  
Heating Degree Days 2 3  
Month to date heating degree days 9 20  
Since 1 July heating degree days 15 58  
Cooling Degree Days 0 2  
Month to date cooling degree days 15 25  
Year to date cooling degree days 679 511  
Growing Degree Days 14 (Base 50)    
Moisture  
Dew Point 52 °F    
Average Humidity 70    
Maximum Humidity 93    
Minimum Humidity 41    
Precipitation  
Precipitation 0.00 in 0.13 in 3.50 in (2018)
Month to date precipitation 0.67 1.12  
Year to date precipitation 35.19 27.34  
Snow  
Snow 0.00 in 0.00 in - ()
Month to date snowfall 0.0 0.0  
Since 1 July snowfall 0.0 0.0  
Since 1 September snowfall 0.0 0.0  
Snow Depth 0.00 in    
Sea Level Pressure  
Sea Level Pressure 30.24 in    
Wind  
Wind Speed 5 mph ()    
Max Wind Speed 10 mph    
Max Gust Speed 16 mph    
Visibility 10.0 miles    
Events      
T = Trace of Precipitation, MM = Missing Value Source: Averaged Metar Reports

Daily Weather History Graph

Daily Weather History Graph

Search for Another Location

Airport or City:

Astronomy

Sep. 09, 2019 Rise Set
Actual Time 6:56 AM EDT 7:42 PM EDT
Civil Twilight 6:28 AM EDT 8:10 PM EDT
Nautical Twilight 5:55 AM EDT 8:43 PM EDT
Astronomical Twilight 5:21 AM EDT 9:17 PM EDT
Moon 5:39 PM EDT 2:23 AM EDT
Length of Visible Light 13h 41m
Length of Day
12h 45m
Waxing Gibbous, 83% of the Moon is Illuminated
Sep 9
Waxing Gibbous
Sep 14
Full
Sep 21
Last Quarter
Sep 28
New
Oct 5
First Quarter

Hourly Weather History & Observations

Time (EDT) Temp. Dew Point Humidity Pressure Visibility Wind Dir Wind Speed Gust Speed Precip Events Conditions
12:51 AM 57.9 °F 52.0 °F 81% 30.19 in 10.0 mi ENE 6.9 mph - N/A   Overcast
1:51 AM 57.0 °F 52.0 °F 83% 30.20 in 10.0 mi ENE 5.8 mph - N/A   Overcast
2:51 AM 57.0 °F 52.0 °F 83% 30.19 in 10.0 mi ENE 5.8 mph - N/A   Mostly Cloudy
3:51 AM 55.9 °F 51.1 °F 84% 30.19 in 10.0 mi ENE 4.6 mph - N/A   Mostly Cloudy
4:51 AM 55.9 °F 52.0 °F 87% 30.19 in 10.0 mi ENE 3.5 mph - N/A   Overcast
5:51 AM 57.0 °F 52.0 °F 83% 30.20 in 10.0 mi ENE 4.6 mph - N/A   Overcast
6:51 AM 55.9 °F 52.0 °F 87% 30.22 in 10.0 mi ENE 5.8 mph - N/A   Mostly Cloudy
7:51 AM 57.0 °F 52.0 °F 83% 30.23 in 10.0 mi ENE 6.9 mph - N/A   Overcast
8:51 AM 59.0 °F 53.1 °F 81% 30.25 in 10.0 mi ENE 5.8 mph - N/A   Mostly Cloudy
9:51 AM 63.0 °F 53.1 °F 70% 30.27 in 10.0 mi NE 3.5 mph - N/A   Mostly Cloudy
10:51 AM 66.9 °F 53.1 °F 61% 30.27 in 10.0 mi NNW 5.8 mph - N/A   Mostly Cloudy
11:51 AM 68.0 °F 50.0 °F 52% 30.27 in 10.0 mi Variable 3.5 mph - N/A   Mostly Cloudy
12:51 PM 69.1 °F 51.1 °F 53% 30.27 in 10.0 mi North 6.9 mph - N/A   Overcast
1:51 PM 69.1 °F 53.1 °F 57% 30.28 in 10.0 mi North 6.9 mph - N/A   Mostly Cloudy
2:51 PM 70.0 °F 52.0 °F 53% 30.26 in 10.0 mi NE 9.2 mph - N/A   Mostly Cloudy
3:51 PM 72.0 °F 51.1 °F 48% 30.24 in 10.0 mi NE 6.9 mph - N/A   Partly Cloudy
4:51 PM 73.0 °F 48.9 °F 42% 30.23 in 10.0 mi ENE 5.8 mph - N/A   Partly Cloudy
5:51 PM 73.0 °F 51.1 °F 46% 30.25 in 10.0 mi Calm Calm - N/A   Partly Cloudy
6:51 PM 70.0 °F 52.0 °F 53% 30.25 in 10.0 mi North 4.6 mph - N/A   Partly Cloudy
7:51 PM 64.0 °F 52.0 °F 65% 30.25 in 10.0 mi NE 4.6 mph - N/A   Partly Cloudy
8:51 PM 61.0 °F 52.0 °F 72% 30.25 in 10.0 mi NE 4.6 mph - N/A   Partly Cloudy
9:51 PM 60.1 °F 54.0 °F 80% 30.27 in 10.0 mi NNE 9.2 mph - N/A   Partly Cloudy
10:51 PM 57.9 °F 53.1 °F 84% 30.26 in 10.0 mi East 4.6 mph - N/A   Mostly Cloudy
11:51 PM 55.9 °F 53.1 °F 90% 30.27 in 10.0 mi East 4.6 mph - N/A   Mostly Cloudy